Location: Artiguedieu
(43.5000°N, 0.5454°E)
Time: 10:33:49
(UTC+00:00)

Vanguard 1 Rocket - Pass Details

Date: 02 August 2021
Orbit: 650 x 4226 km, 34.3° (Epoch: 24 September)

Event Time Altitude Azimuth Distance (km) Brightness Sun altitude
Rises 15:28:11 0° 274° (W) 5,304 12.1 40.0°
Reaches altitude 10° 15:33:32 10° 259° (W) 3,614 11.7 39.1°
Maximum altitude 15:38:48 18° 220° (SW) 2,418 10.5 38.1°
Drops below altitude 10° 15:42:41 10° 178° (S) 2,526 9.9 37.5°
Sets 15:45:33 0° 158° (SSE) 3,201 10.1 36.9°
